{"data":{"norad_id":58199,"epoch":"2026-05-24T11:12:02.021184Z","epoch_age_seconds":120995,"freshness":"FRESH","line1":"1 58199U 23168A   26144.46669006  .00000273  00000+0  36045-4 0  9999","line2":"2 58199  97.8214 152.1764 0001564  90.7189 269.4207 14.87576981139077","mean_motion":14.87576981,"eccentricity":0.0001564,"inclination_deg":97.8214,"raan_deg":152.1764,"arg_perigee_deg":90.7189,"mean_anomaly_deg":269.4207,"bstar":3.6045e-5,"rev_number":13907,"period_min":96.801713013331,"perigee_km":604.41662045524,"apogee_km":606.60110488109,"semimajor_km":6983.6458626682,"source":"CELESTRAK","updated_at":"2026-05-25T13:38:00.584970Z"}}